Tracking 31027 objects as of 18-Jul-2025
HD Live streaming from Space Station
objects crossing your sky now

GAOFEN 3 DEB

Track GAOFEN 3 DEB now!
10-day predictions


NORAD ID: 42678
Int'l Code: 2016-049C
Perigee: 738.8 km
Apogee: 749.3 km
Inclination: 98.3 °
Period: 99.5 minutes
Semi major axis: 7115 km
RCS: Unknown
Launch date: August 9, 2016
Source: People's Republic of China (PRC)
Launch site: Jiuquan Satellite Launch Center, China (JSC)

Note: This is SATELLITE DEBRIS
Your satellite tracking list
Your tracking list is empty




NASA's NSSDC Master Catalog

Two Line Element Set (TLE):
1 42678U 16049C   25198.80804291  .00000130  00000-0  48224-4 0  9992
2 42678  98.3238 211.2112 0007368 293.0486  66.9929 14.46550418465574
Source of the keplerian elements: AFSPC